Probability
52 56 59 62 65 67 67 65 65 64 62 61 61 63 63 60 57 54 47 38 30 24 21 24 27 25 24 24 20 15 11 10 9 8 7 7 9 13 20 25 24 23 25
51 53 55 56 58 61 62 61 63 63 61 61 61 61 60 55 52 50 46 38 30 25 23 26 26 25 26 25 21 16 13 12 10 10 8 6 6 10 17 22 22 21 22
47 47 48 46 45 49 54 56 58 58 57 57 57 57 55 50 45 44 43 37 31 27 26 27 26 26 26 25 21 18 16 14 12 12 10 6 4 7 12 15 17 18 19
39 40 41 39 36 40 46 50 51 51 49 48 48 49 48 44 39 38 38 36 31 29 27 25 25 24 24 24 22 19 17 14 12 12 11 8 6 5 6 8 11 15 15
34 36 37 36 34 36 39 42 44 43 42 41 41 41 40 38 35 32 31 30 29 26 23 22 21 20 21 23 24 20 15 12 11 11 11 9 7 6 4 4 6 9 10
34 36 37 35 33 33 34 36 39 40 40 39 39 37 35 33 31 28 25 24 22 20 19 18 17 17 18 20 21 17 13 10 10 11 10 8 6 5 5 3 3 4 5
31 33 35 35 33 33 34 36 39 40 40 39 39 36 33 29 27 25 23 20 18 16 16 15 13 13 14 16 16 14 11 9 8 8 7 5 3 3 3 2 1 1 2
28 28 30 31 31 32 35 38 38 38 38 38 37 35 30 26 25 25 22 20 19 17 16 14 11 10 11 11 12 11 10 8 5 3 2 1 1 1 1 0 0 0 1
23 24 25 27 27 27 32 36 36 35 35 35 34 32 29 26 25 25 23 22 21 19 17 14 11 9 8 7 7 7 7 6 3 1 0 0 0 0 0 0 0 0 0
19 19 22 25 25 24 29 33 34 34 33 31 30 30 28 26 25 24 23 23 22 20 17 14 11 7 3 2 2 2 3 3 1 0 0 0 0 0 0 0 0 0 0
17 16 20 25 26 25 27 30 33 33 31 27 26 27 26 26 25 25 23 22 21 18 16 13 9 3 0 0 0 0 1 1 0 0 0 0 0 0 0 0 0 0 0
17 16 19 24 27 26 25 27 29 29 26 23 22 24 25 25 25 25 23 21 18 15 13 10 5 2 0 0 0 0 0 0 0 0 0 0 0 0 0 0 0 0 0
21 18 18 22 24 23 23 23 23 23 21 20 21 22 22 22 23 23 22 19 16 13 9 4 2 1 2 1 0 0 0 0 0 0 0 0 0 0 0 0 0 0 0
23 20 18 20 21 22 22 21 20 19 18 18 19 19 19 18 18 19 18 17 15 10 5 2 1 2 3 2 1 1 0 0 0 0 0 0 0 0 0 0 0 0 0
20 19 18 17 17 18 19 20 19 17 16 16 15 14 14 14 13 13 14 14 11 7 3 2 2 3 3 2 2 1 0 0 0 0 0 0 0 0 0 0 0 0 0
17 17 15 14 13 14 15 15 15 15 13 12 10 8 9 9 9 9 10 10 9 6 3 3 3 3 2 1 1 1 0 0 0 0 0 0 0 0 0 0 0 0 0
17 16 15 14 13 14 13 12 11 12 11 9 6 4 4 5 5 5 6 7 6 4 3 3 3 3 1 0 0 0 0 0 0 0 0 0 0 0 0 0 0 0 0
16 15 15 15 15 14 13 10 8 8 8 6 4 3 2 1 1 2 2 4 4 3 3 3 3 2 1 0 0 0 0 0 0 0 0 0 0 0 0 0 0 0 0
14 14 14 14 15 13 10 7 5 4 4 4 3 2 1 0 0 1 1 3 3 3 3 3 3 1 0 0 0 0 0 0 0 0 0 0 0 0 0 0 0 0 0
14 13 13 13 14 12 7 4 2 1 2 2 2 1 0 0 0 1 2 3 3 3 3 3 2 1 0 0 0 0 0 0 0 0 0 0 0 0 0 0 0 0 0
13 12 12 12 12 11 7 3 1 0 0 1 1 1 0 0 0 1 2 3 4 3 3 2 1 0 0 0 0 0 0 0 0 0 0 0 0 0 0 0 0 0 0
10 10 10 11 11 10 8 4 1 0 0 0 0 0 0 0 0 1 2 3 4 3 2 1 0 0 0 0 0 0 0 0 0 0 0 0 0 0 0 0 0 0 0
9 8 8 9 10 9 8 5 2 1 0 0 0 0 0 0 0 1 2 2 2 2 1 0 0 0 0 0 0 0 0 0 0 0 0 0 0 0 0 0 0 0 0
8 7 7 8 9 8 7 5 3 2 1 1 1 0 0 0 0 0 1 1 0 0 0 0 0 0 0 0 0 0 0 0 0 0 0 0 0 0 0 0 0 0 0
7 7 7 7 7 6 5 4 4 3 3 2 2 1 0 0 0 0 0 0 0 0 0 0 0 0 0 0 0 0 0 0 0 0 0 0 0 0 0 0 0 0 0
6 6 6 6 6 6 5 4 4 4 3 3 3 2 1 0 0 0 0 0 0 0 0 0 0 0 0 0 0 0 0 0 0 0 0 0 0 0 0 0 0 0 0
Wind_Speed
9 8 6 6 7 6 5 5 5 4 3 3 3 3 3 2 2 2 3 3 2 1 1 1 1 1 1 1 1 1 3 3 2 2 3 4 5 5 3 3 2 2 3
6 8 7 5 5 5 5 4 4 5 4 3 2 3 3 2 2 2 3 2 2 1 1 1 1 0 0 1 1 1 2 3 2 2 2 2 3 2 3 2 2 2 2
6 7 7 5 3 3 4 4 4 4 3 3 2 2 2 1 1 2 2 2 1 1 0 0 1 1 1 1 1 2 3 3 3 2 2 2 2 2 1 2 2 2 2
6 8 7 6 5 3 3 4 4 4 4 3 3 3 3 2 2 1 2 1 1 2 1 1 0 1 1 1 2 1 2 3 3 2 2 2 2 2 2 2 1 2 2
6 9 8 7 6 5 4 4 5 5 4 4 4 3 2 2 2 2 2 1 1 1 1 1 0 1 2 2 2 2 3 2 3 3 2 3 3 3 3 3 2 1 2
5 8 8 7 6 5 5 6 6 5 4 4 4 3 3 2 2 2 1 0 0 0 0 0 0 1 2 2 2 2 3 2 3 3 2 2 2 2 2 2 2 2 1
5 7 8 8 7 6 5 5 6 6 5 5 3 3 3 2 2 1 1 1 0 0 1 1 1 2 2 2 2 2 3 3 3 3 3 3 3 2 2 2 2 2 1
4 5 6 7 7 7 5 5 6 6 5 5 4 3 2 1 1 1 1 1 1 1 0 0 2 3 3 3 2 2 2 2 3 4 3 3 3 2 2 2 2 2 2
4 4 5 6 6 5 5 5 6 6 5 5 4 3 3 2 1 1 1 0 1 1 0 0 1 2 2 3 3 2 3 3 2 3 3 3 3 3 3 2 2 2 2
3 3 3 5 5 5 5 6 6 5 4 3 4 3 3 2 2 1 1 1 0 1 1 1 1 1 1 2 2 2 2 3 2 2 2 3 3 2 3 3 3 2 2
3 3 3 4 5 5 6 6 5 4 4 3 3 3 3 3 3 2 1 1 0 0 1 1 1 2 2 2 2 3 2 3 3 3 3 3 3 2 2 2 2 2 2
3 3 3 4 4 4 4 4 4 4 4 3 3 3 2 2 2 1 0 0 0 1 1 1 1 1 1 2 2 3 3 3 3 3 3 3 3 2 2 2 2 2 1
4 4 4 3 4 3 3 3 3 3 2 3 3 3 2 1 1 1 1 0 0 0 1 1 1 1 2 2 2 3 2 3 3 3 3 3 3 3 2 2 1 1 1
4 4 3 3 3 3 3 3 3 3 2 2 2 2 2 2 1 1 1 0 0 0 0 1 1 2 2 3 4 3 3 2 3 2 2 2 2 3 3 2 1 1 1
4 4 3 4 3 3 3 3 3 3 2 3 2 2 2 2 2 1 1 0 1 1 1 2 2 2 3 4 5 4 3 3 3 2 2 2 2 2 2 2 2 1 1
4 4 4 4 4 3 3 3 3 2 2 2 2 2 2 2 2 1 1 1 1 1 2 2 2 3 4 6 7 6 4 3 2 2 2 1 1 1 1 0 1 1 1
4 4 3 3 3 3 3 3 3 3 3 2 1 2 2 2 2 1 2 2 1 1 2 2 3 3 4 5 6 7 4 2 2 2 2 2 2 2 1 2 2 1 1
4 4 3 3 3 3 3 3 3 3 3 2 2 1 1 1 1 2 2 1 1 1 1 1 2 2 3 4 6 8 4 2 1 1 2 2 2 5 4 1 1 1 1
4 4 3 4 3 4 3 3 3 3 2 3 2 1 1 1 1 1 2 1 1 1 1 1 2 1 2 3 5 7 3 2 1 1 2 2 2 6 6 2 1 1 1
4 4 3 4 4 3 3 4 3 3 2 2 2 2 1 1 1 1 1 1 0 1 0 0 0 1 1 1 3 5 3 2 1 1 2 5 4 5 6 3 1 1 1
5 4 4 4 3 3 3 3 3 3 2 2 2 2 1 1 2 2 1 1 1 1 1 1 1 1 1 1 1 3 2 3 3 1 1 2 3 3 3 2 1 1 2
5 5 4 4 3 3 3 3 3 2 2 2 2 2 2 1 1 2 1 2 2 2 2 2 2 2 2 1 1 1 2 3 3 2 2 1 2 4 4 2 2 3 3
5 4 4 4 4 3 3 3 3 2 2 2 2 2 1 1 1 2 2 2 2 1 1 1 1 1 2 2 2 2 3 3 2 2 3 3 5 5 5 5 5 4 3
5 4 4 4 4 3 3 3 3 2 2 3 2 2 2 2 2 1 1 1 0 1 1 1 0 0 1 1 1 1 2 2 1 2 3 5 7 6 6 4 4 4 3
4 4 4 4 4 4 3 3 3 3 2 2 2 2 2 2 2 1 1 1 2 1 1 2 2 1 1 1 1 1 2 2 2 3 3 3 3 3 3 3 3 3 3
5 4 4 4 4 4 4 3 3 3 3 2 2 2 2 2 2 2 1 0 2 2 1 1 2 1 1 2 0 2 3 4 4 3 4 4 3 3 3 3 3 3 3
Wind_Direction
159 152 145 138 133 136 147 152 156 148 155 160 177 173 179 177 165 156 150 149 165 203 248 297 270 268 263 261 275 294 288 276 269 283 289 275 256 244 232 228 238 238 227
144 141 140 142 142 151 153 159 161 161 171 173 176 170 162 181 161 141 139 151 170 200 224 184 278 332 286 273 277 292 281 280 273 269 283 276 269 262 238 206 209 229 236
153 137 139 143 131 152 161 162 160 160 165 149 145 143 129 128 132 134 143 150 175 190 234 217 272 317 293 274 283 272 277 282 281 250 250 276 282 321 268 241 219 208 219
140 140 146 157 154 176 156 134 136 139 135 135 134 142 147 144 130 128 123 134 209 196 189 223 249 288 295 297 293 319 296 285 289 292 259 258 271 266 285 273 244 216 217
151 146 152 157 155 160 153 137 124 120 115 116 114 118 123 121 118 121 125 167 230 216 190 187 276 300 302 318 317 314 295 293 293 294 296 287 272 247 247 265 259 240 224
134 138 142 144 143 145 149 144 132 130 130 125 124 124 120 114 118 121 118 118 277 276 9 215 23 325 311 311 303 293 287 290 298 298 292 285 277 273 265 273 266 258 240
136 135 142 148 147 141 139 144 141 143 146 145 143 135 137 149 150 154 151 172 271 332 18 8 350 318 299 290 288 290 289 284 285 283 280 283 280 284 281 275 280 284 279
124 135 143 147 148 150 151 157 152 150 154 154 155 152 160 165 151 166 197 205 242 254 200 332 308 305 305 312 320 297 286 279 279 284 284 280 280 278 266 256 263 270 267
115 129 146 137 140 154 158 152 147 149 159 162 164 168 165 160 164 197 220 207 228 251 127 303 292 306 320 323 318 309 309 296 283 286 287 283 284 283 276 263 247 243 255
113 114 122 133 138 147 147 142 149 152 155 168 180 165 159 166 191 193 207 234 301 348 310 267 285 296 297 297 299 308 318 317 308 291 289 291 287 293 286 275 261 248 245
101 119 136 130 132 136 139 145 154 158 163 186 186 166 169 187 196 198 189 156 121 300 290 300 296 294 300 306 313 313 308 312 322 312 301 296 298 296 301 294 287 267 247
103 102 117 119 122 127 137 145 160 168 177 183 171 171 179 178 176 152 119 87 336 301 307 308 321 316 327 336 325 313 327 328 326 323 320 313 311 308 303 304 302 303 287
99 98 97 105 112 115 122 126 139 148 168 166 156 158 157 151 175 173 144 157 225 287 322 339 334 333 345 344 339 333 339 342 339 340 338 334 336 323 319 313 301 293 297
120 108 101 93 95 107 119 125 124 120 128 133 135 133 153 172 185 184 147 166 192 42 358 2 11 5 8 15 4 360 357 350 349 344 337 342 346 337 328 316 309 307 313
130 124 118 109 106 108 114 114 122 129 127 119 112 114 128 145 152 141 116 102 59 37 15 31 25 15 30 26 13 354 353 356 343 334 344 12 26 19 345 327 349 343 307
142 130 118 122 126 129 134 130 128 121 115 110 120 125 138 141 134 121 103 67 57 40 13 26 24 32 37 35 20 2 345 336 331 333 330 253 248 240 226 333 360 320 274
142 136 129 128 131 139 139 141 141 132 128 127 131 124 130 120 123 112 88 68 48 30 9 25 43 58 54 32 13 360 329 320 325 335 322 322 8 333 248 201 205 191 214
139 138 138 133 134 136 143 142 135 139 145 138 129 131 128 121 122 111 99 81 57 20 355 37 64 70 55 28 2 343 315 305 318 329 333 349 6 2 356 350 41 61 34
116 123 137 142 143 143 144 144 148 158 159 147 143 138 126 113 106 95 92 93 66 350 337 61 72 72 71 24 356 343 321 315 315 357 11 9 42 18 5 352 17 37 79
109 117 133 143 143 140 149 154 163 168 169 151 133 129 122 109 104 98 90 86 118 258 263 87 119 119 96 59 352 347 325 333 343 42 64 51 40 26 14 360 5 13 21
121 132 146 147 148 154 157 159 161 166 162 150 149 148 134 151 141 126 136 207 238 257 255 230 212 175 125 141 345 352 343 340 330 345 36 70 36 12 357 348 338 332 327
132 137 138 130 130 146 153 150 146 149 155 157 159 152 157 198 130 134 196 234 230 238 242 220 206 180 161 157 169 319 332 328 325 343 15 42 346 328 319 306 286 304 310
135 142 142 133 134 147 155 148 137 141 155 157 150 145 162 162 152 180 213 229 233 241 247 212 200 178 158 159 189 241 295 322 330 341 339 308 290 297 287 264 268 274 261
143 150 150 144 148 155 154 148 151 162 166 162 160 168 179 186 177 208 242 249 306 8 1 347 319 86 126 125 158 238 247 275 290 304 299 275 266 266 275 277 251 238 239
152 159 159 156 160 163 161 158 163 164 157 157 175 197 201 182 157 175 311 321 23 26 337 337 342 356 20 63 359 317 329 343 358 323 292 277 263 250 239 238 235 226 223
162 168 170 167 166 171 166 163 170 166 163 178 189 202 195 182 182 178 160 51 190 157 172 241 268 329 151 161 335 333 324 323 329 314 284 279 271 270 267 258 243 232 230